Powrót do katalogu

METEOR 2-8 DEB

AktywnyPO
NORAD 36860·DEBRIS·🇷🇺 Russia

Wystrzelony Mar 25, 1982 z Plesetsk Cosmodrome

Loading…

Następne Przeloty (najbliższe 24 godziny)

TLE

ŚwieżeSource: Space-Track

Epoka: Sep 12, 2026, 12:22 UTC

1 36860U 82025AX  26255.51569087  .00001893  00000-0  87193-3 0  9993
2 36860  82.5206 178.0237 0027268 131.8261 228.5255 14.20458784117767

Śledź METEOR 2-8 DEB w czasie rzeczywistym z AllMySat

Download on the App Store